Flag for India Weather past 2 weeks in Nãgpur, Maharashtra, India

Now
59 °F

Haze.


Feels Like: 59 °F
Forecast: 53 / 85 °F
Wind: No wind

Location: Nagpur Sonegaon

Current Time: Feb 2, 2015 at 4:39:47 AM

Latest Report: Feb 2, 2015 at 1:40 AM


Visibility: 2 mi

Pressure: 30.01 "Hg

Humidity: 55%

Dew point: 43 °F

Location of NãgpurLocation

Historic Weather in Nãgpur — Graph

°F

Nãgpur temperature yesterday

Maximum temperature yesterday: 88 °F (at 3:40 PM)
Minimum temperature yesterday: 50 °F (at 5:40 AM)
Average temperature yesterday: 69 °F

Past Weeks' High & Low Weather Summary

 TemperatureHumidityPressure
High88 °F (Feb 1, 3:40 PM)88% (Jan 25, 7:40 AM)30.18 "Hg (Jan 25, 7:40 AM)
Low48 °F (Jan 20, 5:40 AM)17% (Feb 1, 4:40 PM)29.89 "Hg (Jan 28, 3:40 PM)
Average69 °F53%30.04 "Hg
* Reported Jan 18 6:40 AM — Feb 2 1:40 AM, Nãgpur, Weather by CustomWeather, © 2014

Note: Actual official high and low records may vary slightly from our data, if they occured in-between our weather recording intervals... More about our weather records

Advertising

Nãgpur weather history for previous 24 hours

 ConditionsComfort  
Time TempWeatherWind HumidityBarometerVisibility
1:40 AM
Feb 2
59 °FHaze.No wind55%30.01 "Hg2 mi
10:40 PM
Feb 1
63 °FHaze.No wind37%30.04 "Hg2 mi
9:40 PM64 °FHaze.No wind60%30.04 "Hg2 mi
8:40 PM68 °FHaze.3 mph56%30.04 "Hg2 mi
7:40 PM70 °FHaze.2 mph60%30.01 "Hg2 mi
6:40 PM72 °FHaze.No wind61%29.98 "Hg2 mi
5:40 PM84 °FHaze.2 mph62%29.95 "Hg3 mi
4:40 PM88 °FHaze.6 mph17%29.95 "Hg3 mi
3:40 PM88 °FClear.3 mph18%29.95 "Hg4 mi
1:40 PM84 °FClear.8 mph19%30.01 "Hg4 mi
11:40 AM77 °FClear.5 mph32%30.09 "Hg4 mi
10:40 AM72 °FClear.6 mph44%30.12 "Hg4 mi
9:40 AM66 °FClear.3 mph37%30.12 "Hg4 mi
8:40 AM61 °FHaze.2 mph55%30.12 "Hg3 mi
7:40 AM54 °FHaze.No wind51%30.09 "Hg2 mi
5:40 AM50 °FHaze.No wind67%30.04 "Hg2 mi
Weather by CustomWeather, © 2014

See weather overviewHow to use our weather pages